SR6WXP Weather Reports


time (UTC)temp
F
wind
direction
speed
knots
gust
knots
rain 1hr
in
rain 24hr
in
rain mn
in
humidity
%
barometer
mb
20260504081646 70 138 5.2 8.7 0.00 0.00 0.00 44 991.3
20260504081246 70 116 3.5 7.0 0.00 0.00 0.00 45 991.2
20260504080844 70 167 4.3 7.8 0.00 0.00 0.00 44 991.2
20260504080513 70 167 3.5 7.0 0.00 0.00 0.00 44 991.2
20260504080441 70 115 1.7 4.3 0.00 0.00 0.00 44 991.2
20260504060133 64 111 1.7 5.2 0.00 0.00 0.00 47 991.0
20260504050402 61 120 2.6 5.2 0.00 0.00 0.00 48 990.6
20260504050003 61 141 3.5 6.1 0.00 0.00 0.00 48 990.6
20260504045602 61 136 1.7 5.2 0.00 0.00 0.00 49 990.5
20260504045202 60 126 2.6 5.2 0.00 0.00 0.00 49 990.5
20260504044800 60 118 2.6 4.3 0.00 0.00 0.00 49 990.5
20260504044629 60 136 3.5 7.8 0.00 0.00 0.00 49 990.4
20260504044400 60 124 3.5 7.0 0.00 0.00 0.00 49 990.4
20260504044000 60 136 3.5 7.8 0.00 0.00 0.00 49 990.4
20260504043157 59 120 3.5 7.0 0.00 0.00 0.00 49 990.4
20260504042755 59 115 3.5 7.0 0.00 0.00 0.00 49 990.4
20260504042627 59 122 3.5 6.1 0.00 0.00 0.00 49 990.4
20260504042355 59 122 3.5 6.1 0.00 0.00 0.00 49 990.4
20260504041955 59 118 3.5 6.1 0.00 0.00 0.00 49 990.3
20260504041555 59 131 4.3 6.1 0.00 0.00 0.00 49 990.3
20260504041155 59 127 2.6 4.3 0.00 0.00 0.00 49 990.3
20260504040753 58 131 2.6 5.2 0.00 0.00 0.00 50 990.3
20260504040353 58 127 2.6 4.3 0.00 0.00 0.00 50 990.3
20260504035953 58 111 2.6 7.8 0.00 0.00 0.00 50 990.3
20260504035546 58 116 2.6 6.1 0.00 0.00 0.00 50 990.3
20260504035145 58 112 3.5 6.1 0.00 0.00 0.00 50 990.3
20260504034742 58 128 2.6 4.3 0.00 0.00 0.00 50 990.3
20260504034341 58 122 4.3 7.0 0.00 0.00 0.00 50 990.3
20260504033941 58 117 2.6 5.2 0.00 0.00 0.00 49 990.3
20260504033541 58 117 2.6 4.3 0.00 0.00 0.00 49 990.3
20260504033141 58 120 3.5 7.0 0.00 0.00 0.00 50 990.2
20260504032337 58 135 3.5 7.0 0.00 0.00 0.00 49 990.3
20260504031937 58 121 4.3 7.8 0.00 0.00 0.00 49 990.2
20260504031537 58 132 4.3 10.4 0.00 0.00 0.00 49 990.3
20260504031136 58 141 4.3 7.8 0.00 0.00 0.00 49 990.3
20260504030735 58 131 3.5 8.7 0.00 0.00 0.00 49 990.3
20260504030334 58 143 3.5 7.8 0.00 0.00 0.00 49 990.3
20260504025935 58 124 2.6 4.3 0.00 0.00 0.00 49 990.3
20260504025535 58 131 4.3 9.6 0.00 0.00 0.00 49 990.3
20260504025135 58 131 3.5 6.1 0.00 0.00 0.00 49 990.4
20260504024732 58 131 3.5 5.2 0.00 0.00 0.00 48 990.3
20260504024332 58 124 3.5 5.2 0.00 0.00 0.00 48 990.3
20260504023932 58 128 3.5 5.2 0.00 0.00 0.00 48 990.3
20260504023532 58 124 3.5 7.0 0.00 0.00 0.00 48 990.3
20260504023353 58 126 4.3 7.0 0.00 0.00 0.00 48 990.4
20260504023132 58 126 4.3 7.0 0.00 0.00 0.00 48 990.4
20260504022730 58 130 4.3 8.7 0.00 0.00 0.00 48 990.4
20260504022542 58 136 5.2 8.7 0.00 0.00 0.00 48 990.4
20260504022330 58 136 5.2 8.7 0.00 0.00 0.00 48 990.4
20260504021930 58 130 3.5 7.8 0.00 0.00 0.00 48 990.4
20260504021528 58 134 4.3 7.0 0.00 0.00 0.00 48 990.4
20260504021128 58 123 5.2 9.6 0.00 0.00 0.00 48 990.5
20260504020725 58 127 4.3 9.6 0.00 0.00 0.00 48 990.5
20260504020325 58 132 3.5 5.2 0.00 0.00 0.00 48 990.5
20260504015925 58 131 5.2 8.7 0.00 0.00 0.00 48 990.6
20260504015525 58 135 3.5 7.0 0.00 0.00 0.00 48 990.5
20260504015207 58 131 2.6 5.2 0.00 0.00 0.00 47 990.5
20260504015126 58 131 2.6 5.2 0.00 0.00 0.00 47 990.5
20260504014724 58 116 4.3 10.4 0.00 0.00 0.00 47 990.5
20260504014324 58 123 4.3 6.1 0.00 0.00 0.00 47 990.5
20260504013924 58 121 3.5 6.1 0.00 0.00 0.00 47 990.5
20260504013600 58 131 3.5 10.4 0.00 0.00 0.00 47 990.5
20260504013524 58 131 3.5 10.4 0.00 0.00 0.00 47 990.5
20260504013124 58 124 3.5 7.0 0.00 0.00 0.00 47 990.6
20260504012714 58 135 3.5 7.0 0.00 0.00 0.00 47 990.6
20260504012313 59 137 3.5 7.8 0.00 0.00 0.00 47 990.7
20260504011913 59 121 3.5 6.1 0.00 0.00 0.00 47 990.7
20260504011512 59 131 3.5 7.8 0.00 0.00 0.00 47 990.7
20260504011112 59 129 2.6 6.1 0.00 0.00 0.00 47 990.7
20260504010710 59 127 3.5 6.1 0.00 0.00 0.00 47 990.7
20260504010308 59 137 3.5 7.8 0.00 0.00 0.00 46 990.7
20260504010050 59 147 2.6 5.2 0.00 0.00 0.00 46 990.7
20260504005908 59 147 2.6 5.2 0.00 0.00 0.00 46 990.7
20260504005508 59 140 2.6 4.3 0.00 0.00 0.00 46 990.7
20260504005300 59 135 3.5 7.0 0.00 0.00 0.00 46 990.7
20260504005108 59 135 3.5 7.0 0.00 0.00 0.00 46 990.7
20260504004706 59 144 3.5 7.0 0.00 0.00 0.00 46 990.7
20260504004643 59 134 4.3 7.0 0.00 0.00 0.00 46 990.7
20260504004306 59 130 4.3 7.0 0.00 0.00 0.00 46 990.7
20260504004240 59 142 3.5 5.2 0.00 0.00 0.00 46 990.7
20260504003906 59 134 4.3 7.8 0.00 0.00 0.00 46 990.7
20260504003506 59 134 4.3 7.0 0.00 0.00 0.00 46 990.7
20260504003106 59 142 3.5 5.2 0.00 0.00 0.00 46 990.7
20260504003054 59 135 2.6 7.0 0.00 0.00 0.00 46 990.8
20260504003045 59 125 4.3 6.1 0.00 0.00 0.00 46 990.7
20260504002704 59 135 2.6 7.0 0.00 0.00 0.00 46 990.8
20260504002304 59 132 3.5 5.2 0.00 0.00 0.00 46 990.7
20260504001904 59 125 4.3 6.1 0.00 0.00 0.00 46 990.7
20260504001504 59 141 3.5 7.8 0.00 0.00 0.00 46 990.7
20260504001104 59 136 3.5 6.1 0.00 0.00 0.00 46 990.7
20260504000702 59 132 2.6 7.0 0.00 0.00 0.00 46 990.7
20260504000302 59 139 3.5 7.8 0.00 0.00 0.00 46 990.8
20260503235902 59 138 3.5 6.1 0.00 0.00 0.00 46 990.8
20260503235740 60 120 2.6 5.2 0.00 0.00 0.00 46 990.8
20260503235500 60 120 2.6 5.2 0.00 0.00 0.00 46 990.8
20260503235211 60 130 3.5 5.2 0.00 0.00 0.00 46 990.9
20260503235101 60 122 3.5 7.0 0.00 0.00 0.00 46 990.9
20260503234658 60 130 3.5 5.2 0.00 0.00 0.00 46 990.9
20260503234426 60 135 3.5 7.0 0.00 0.00 0.00 46 990.9
20260503234258 60 135 3.5 7.0 0.00 0.00 0.00 46 990.9
20260503233858 60 124 2.6 4.3 0.00 0.00 0.00 45 990.9
20260503233458 60 131 3.5 6.1 0.00 0.00 0.00 45 991.0
20260503233329 61 149 2.6 7.0 0.00 0.00 0.00 45 990.9
20260503233058 61 149 2.6 7.0 0.00 0.00 0.00 45 990.9
20260503232741 61 135 4.3 8.7 0.00 0.00 0.00 45 991.0
20260503232656 61 135 4.3 8.7 0.00 0.00 0.00 45 991.0
20260503232256 61 136 3.5 5.2 0.00 0.00 0.00 45 991.0
20260503231856 61 152 3.5 7.8 0.00 0.00 0.00 45 991.0
20260503231456 61 139 4.3 7.0 0.00 0.00 0.00 45 991.0
20260503231056 61 144 5.2 8.7 0.00 0.00 0.00 45 991.0
20260503231027 61 144 4.3 7.8 0.00 0.00 0.00 45 991.1
20260503230654 61 144 4.3 7.8 0.00 0.00 0.00 45 991.1
20260503230254 61 142 4.3 10.4 0.00 0.00 0.00 45 991.1
20260503230055 61 144 4.3 8.7 0.00 0.00 0.00 45 991.1
20260503225854 61 144 4.3 8.7 0.00 0.00 0.00 45 991.1
20260503225447 61 138 5.2 7.0 0.00 0.00 0.00 45 991.1
20260503225122 61 163 3.5 6.1 0.00 0.00 0.00 45 991.1
20260503225046 61 163 3.5 6.1 0.00 0.00 0.00 45 991.1
20260503224716 61 154 3.5 7.0 0.00 0.00 0.00 45 991.2
20260503224240 62 141 3.5 7.8 0.00 0.00 0.00 45 991.2
20260503224016 62 145 4.3 9.6 0.00 0.00 0.00 44 991.2
20260503223840 62 145 4.3 9.6 0.00 0.00 0.00 44 991.2
20260503223715 62 165 3.5 7.0 0.00 0.00 0.00 44 991.2
20260503223440 62 165 3.5 7.0 0.00 0.00 0.00 44 991.2
20260503223040 62 147 2.6 5.2 0.00 0.00 0.00 44 991.2
20260503222638 62 153 3.5 8.7 0.00 0.00 0.00 44 991.2
20260503222238 62 153 5.2 8.7 0.00 0.00 0.00 44 991.2
20260503221838 62 150 4.3 6.1 0.00 0.00 0.00 44 991.2
20260503221438 62 148 3.5 6.1 0.00 0.00 0.00 44 991.2
20260503221038 62 141 3.5 7.0 0.00 0.00 0.00 44 991.2
20260503220636 62 149 4.3 7.0 0.00 0.00 0.00 44 991.2
20260503220540 63 136 4.3 7.8 0.00 0.00 0.00 44 991.2
20260503220236 63 136 4.3 7.8 0.00 0.00 0.00 44 991.2
20260503220009 63 137 4.3 8.7 0.00 0.00 0.00 44 991.3
20260503215836 63 137 4.3 8.7 0.00 0.00 0.00 44 991.3
20260503215638 63 141 3.5 7.8 0.00 0.00 0.00 44 991.3
20260503215437 63 141 3.5 7.8 0.00 0.00 0.00 44 991.3
20260503215037 63 138 3.5 6.1 0.00 0.00 0.00 44 991.3
20260503214940 63 145 5.2 12.2 0.00 0.00 0.00 44 991.3
20260503214635 63 145 3.5 6.1 0.00 0.00 0.00 44 991.3
20260503214235 63 145 5.2 12.2 0.00 0.00 0.00 44 991.3
20260503213835 63 136 3.5 7.0 0.00 0.00 0.00 45 991.3
20260503213432 63 152 5.2 9.6 0.00 0.00 0.00 45 991.3
20260503213032 63 146 2.6 8.7 0.00 0.00 0.00 45 991.3
20260503212630 63 161 2.6 6.1 0.00 0.00 0.00 45 991.3
20260503212230 64 133 2.6 7.8 0.00 0.00 0.00 45 991.4
20260503211830 64 150 2.6 5.2 0.00 0.00 0.00 45 991.4
20260503211430 64 140 2.6 7.0 0.00 0.00 0.00 45 991.3
20260503211030 64 124 5.2 7.8 0.00 0.00 0.00 45 991.4
20260503210628 64 150 3.5 10.4 0.00 0.00 0.00 45 991.4
20260503210228 64 154 4.3 7.0 0.00 0.00 0.00 44 991.4
20260503205825 64 162 3.5 7.0 0.00 0.00 0.00 44 991.4
20260503205025 65 155 4.3 7.8 0.00 0.00 0.00 44 991.5
20260503204623 65 140 5.2 9.6 0.00 0.00 0.00 44 991.5
20260503204223 65 136 3.5 7.8 0.00 0.00 0.00 44 991.5
20260503203822 65 134 4.3 8.7 0.00 0.00 0.00 44 991.5
20260503203422 65 137 4.3 8.7 0.00 0.00 0.00 44 991.6
20260503203022 65 143 6.1 11.3 0.00 0.00 0.00 44 991.6
20260503202210 65 165 2.6 5.2 0.00 0.00 0.00 43 991.6
20260503201809 66 154 4.3 8.7 0.00 0.00 0.00 43 991.7
20260503201408 66 150 5.2 10.4 0.00 0.00 0.00 43 991.7
20260503201008 66 159 3.5 7.0 0.00 0.00 0.00 43 991.7
20260503200606 66 166 4.3 7.8 0.00 0.00 0.00 43 991.7
20260503200206 66 151 4.3 11.3 0.00 0.00 0.00 43 991.7
20260503200040 66 157 4.3 9.6 0.00 0.00 0.00 43 991.8
20260503195806 66 157 4.3 9.6 0.00 0.00 0.00 43 991.8
20260503195406 66 158 5.2 10.4 0.00 0.00 0.00 43 991.8
20260503195006 66 160 3.5 7.8 0.00 0.00 0.00 43 991.8
20260503194604 66 143 3.5 6.1 0.00 0.00 0.00 43 991.8
20260503194204 66 152 4.3 7.8 0.00 0.00 0.00 43 991.8
20260503193804 67 171 5.2 9.6 0.00 0.00 0.00 42 991.8
20260503193404 67 152 3.5 8.7 0.00 0.00 0.00 42 991.8
20260503193004 67 143 4.3 7.8 0.00 0.00 0.00 42 991.8
20260503192602 67 140 3.5 7.8 0.00 0.00 0.00 42 991.8
20260503192524 67 152 4.3 11.3 0.00 0.00 0.00 42 991.8
20260503192202 67 152 4.3 11.3 0.00 0.00 0.00 42 991.8
20260503191802 67 157 3.5 7.8 0.00 0.00 0.00 42 991.8
20260503191755 68 152 3.5 6.1 0.00 0.00 0.00 42 991.8
20260503191000 68 131 3.5 8.7 0.00 0.00 0.00 42 991.8
20260503190558 68 141 3.5 6.1 0.00 0.00 0.00 42 991.7
20260503190158 68 134 3.5 7.8 0.00 0.00 0.00 42 991.7
20260503190104 69 139 3.5 6.1 0.00 0.00 0.00 41 991.7
20260503185758 69 139 3.5 6.1 0.00 0.00 0.00 41 991.7
20260503185358 69 136 3.5 6.1 0.00 0.00 0.00 41 991.6
20260503184957 69 142 2.6 4.3 0.00 0.00 0.00 41 991.6
20260503184555 70 138 2.6 7.0 0.00 0.00 0.00 40 991.6
20260503184156 70 126 1.7 2.6 0.00 0.00 0.00 40 991.6
20260503183753 70 161 1.7 5.2 0.00 0.00 0.00 39 991.6
20260503183353 71 149 2.6 6.1 0.00 0.00 0.00 39 991.5
20260503182953 71 160 2.6 5.2 0.00 0.00 0.00 38 991.5
20260503182923 71 159 3.5 7.8 0.00 0.00 0.00 38 991.4
20260503182551 71 159 3.5 7.8 0.00 0.00 0.00 38 991.4
20260503182151 72 153 2.6 5.2 0.00 0.00 0.00 38 991.4
20260503181954 73 145 1.7 3.5 0.00 0.00 0.00 37 991.4
20260503181751 73 145 1.7 3.5 0.00 0.00 0.00 37 991.4
20260503181351 73 151 3.5 6.1 0.00 0.00 0.00 36 991.3
20260503180951 74 153 2.6 5.2 0.00 0.00 0.00 36 991.3
20260503180549 75 141 1.7 5.2 0.00 0.00 0.00 35 991.3
20260503180146 76 150 3.5 5.2 0.00 0.00 0.00 34 991.3
20260503175747 76 164 2.6 5.2 0.00 0.00 0.00 34 991.3
20260503175339 77 147 3.5 7.0 0.00 0.00 0.00 33 991.2
20260503174938 78 139 4.3 7.0 0.00 0.00 0.00 32 991.2
20260503174548 81 184 3.5 7.0 0.00 0.00 0.00 30 991.2
20260503174535 78 139 5.2 10.4 0.00 0.00 0.00 32 991.2
20260503174134 79 142 3.5 7.8 0.00 0.00 0.00 31 991.2
20260503173745 81 139 4.3 8.7 0.00 0.00 0.00 29 991.2
20260503173334 80 142 4.3 7.8 0.00 0.00 0.00 30 991.3
20260503172934 81 184 3.5 7.0 0.00 0.00 0.00 30 991.2
20260503172532 81 139 4.3 8.7 0.00 0.00 0.00 29 991.2
20260503172132 82 169 3.5 11.3 0.00 0.00 0.00 29 991.2
20260503171732 82 152 5.2 9.6 0.00 0.00 0.00 29 991.2
20260503170932 82 151 4.3 7.0 0.00 0.00 0.00 29 991.2
20260503170530 82 153 4.3 9.6 0.00 0.00 0.00 29 991.2
20260503170130 82 161 4.3 10.4 0.00 0.00 0.00 29 991.2
20260503160120 84 150 7.0 12.2 0.00 0.00 0.00 27 991.3
20260503150904 84 134 7.8 13.0 0.00 0.00 0.00 29 991.5
20260503150502 83 130 6.1 10.4 0.00 0.00 0.00 29 991.5
20260503131247 73 146 6.1 9.6 0.00 0.00 0.00 36 992.6
20260503130847 73 139 5.2 8.7 0.00 0.00 0.00 36 992.6
20260503130444 73 201 4.3 8.7 0.00 0.00 0.00 36 992.7
20260503110823 70 188 2.6 5.2 0.00 0.00 0.00 39 993.5
20260503110421 70 168 3.5 7.0 0.00 0.00 0.00 38 993.5